Weather History for KFLP - January, 2001

Change the Weather History Date:

Wednesday, January 24, 2001

  Actual Average (KHRO) Record (KHRO)
Temperature  
Mean Temperature 39 °F 37 °F  
Max Temperature 48 °F 47 °F 81 °F (1943)
Min Temperature 30 °F 27 °F -2 °F (1930)
Degree Days  
Heating Degree Days 26 28  
Month to date heating degree days 692  
Since 1 July heating degree days 2291  
Cooling Degree Days 0 0  
Month to date cooling degree days 0  
Year to date cooling degree days 0  
Moisture  
Dew Point 26 °F    
Average Humidity 64    
Maximum Humidity 93    
Minimum Humidity 34    
Precipitation  
Precipitation 0.00 in 0.08 in 3.60 in (1929)
Month to date precipitation 2.00  
Year to date precipitation 2.00  
Snow  
Snow 0.00 in 0.20 in 1.50 in (1948)
Month to date snowfall 3.0  
Since 1 July snowfall 4.8  
Snow Depth -    
Sea Level Pressure  
Sea Level Pressure 30.30 in    
Wind  
Wind Speed 3 mph (NNE)    
Max Wind Speed 9 mph    
Max Gust Speed -    
Visibility 9 miles    
Events      
T = Trace of Precipitation, MM = Missing Value Source: NWS Daily Summary

Daily Weather History Graph

Daily Weather History Graph

Search for Another Location

Airport or City:

Trip Planner

Search our weather history database for the weather conditions in past years. The results will help you decide how hot, cold, wet, or windy it might be!

Date:

Astronomy

Jan. 24, 2001 Rise Set
Actual Time 7:16 AM CST 5:28 PM CST
Civil Twilight 6:49 AM CST 5:56 PM CST
Nautical Twilight 6:18 AM CST 6:27 PM CST
Astronomical Twilight 5:47 AM CST 6:57 PM CST
Moon 7:30 AM CST (1/24) 5:42 PM CST (1/24)
Length of Visible Light 11h 06m
Length of Day
10h 11m
New Moon, 0% of the Moon is Illuminated
Jan 24
New Moon
Feb 1
First Quarter
Feb 8
Full
Feb 14
Last Quarter
Feb 23
New

Hourly Weather History & Observations

Time (CST) Temp. Windchill Dew Point Humidity Pressure Visibility Wind Dir Wind Speed Gust Speed Precip Events Conditions
12:15 AM 35.6 °F - 28.4 °F 75% 30.23 in 10.0 mi Calm Calm - N/A   Clear
12:35 AM 33.8 °F 29.6 °F 28.4 °F 81% 30.23 in 10.0 mi NNE 4.6 mph - N/A   Clear
12:55 AM 33.8 °F 30.8 °F 28.4 °F 81% 30.23 in 10.0 mi NNE 3.5 mph - N/A   Clear
1:15 AM 33.8 °F 30.8 °F 28.4 °F 81% 30.23 in 10.0 mi NNE 3.5 mph - N/A   Clear
1:35 AM 32.0 °F - 28.4 °F 87% 30.24 in 9.0 mi Calm Calm - N/A   Clear
1:55 AM 30.2 °F - 28.4 °F 93% 30.25 in 7.0 mi Calm Calm - N/A   Clear
2:15 AM 33.8 °F 28.6 °F 28.4 °F 81% 30.25 in 9.0 mi NNE 5.8 mph - N/A   Clear
2:35 AM 33.8 °F - 28.4 °F 81% 30.24 in 9.0 mi Calm Calm - N/A   Clear
2:55 AM 32.0 °F - 26.6 °F 80% 30.24 in 7.0 mi Calm Calm - N/A   Clear
3:15 AM 32.0 °F - 28.4 °F 87% 30.24 in 7.0 mi Calm Calm - N/A   Clear
3:35 AM 33.8 °F - 28.4 °F 81% 30.24 in 10.0 mi Calm Calm - N/A   Mostly Cloudy
3:55 AM 33.8 °F - 28.4 °F 81% 30.24 in 8.0 mi Calm Calm - N/A   Overcast
4:15 AM 32.0 °F - 28.4 °F 87% 30.25 in 7.0 mi Calm Calm - N/A   Overcast
4:35 AM 33.8 °F 30.8 °F 28.4 °F 81% 30.25 in 9.0 mi North 3.5 mph - N/A   Overcast
4:55 AM 33.8 °F - 28.4 °F 81% 30.24 in 9.0 mi Calm Calm - N/A   Overcast
5:15 AM 32.0 °F - 28.4 °F 87% 30.24 in 6.0 mi Calm Calm - N/A   Overcast
5:35 AM 32.0 °F - 28.4 °F 87% 30.25 in 6.0 mi Calm Calm - N/A   Scattered Clouds
5:55 AM 33.8 °F 30.8 °F 28.4 °F 81% 30.25 in 8.0 mi NNE 3.5 mph - N/A   Partly Cloudy
6:15 AM 32.0 °F 28.7 °F 28.4 °F 87% 30.26 in 7.0 mi NE 3.5 mph - N/A   Mostly Cloudy
6:35 AM 32.0 °F - 28.4 °F 87% 30.26 in 7.0 mi Calm Calm - N/A   Scattered Clouds
6:55 AM 30.2 °F - 26.6 °F 86% 30.28 in 5.0 mi Calm Calm - N/A   Scattered Clouds
7:15 AM 33.8 °F 30.8 °F 30.2 °F 87% 30.28 in 6.0 mi NNE 3.5 mph - N/A   Mostly Cloudy
7:35 AM 35.6 °F 31.7 °F 30.2 °F 81% 30.29 in 5.0 mi NNE 4.6 mph - N/A   Overcast
7:55 AM 35.6 °F 30.7 °F 30.2 °F 81% 30.30 in 5.0 mi North 5.8 mph - N/A   Overcast
8:15 AM 35.6 °F 32.8 °F 30.2 °F 81% 30.32 in 7.0 mi NNE 3.5 mph - N/A   Overcast
8:35 AM 37.4 °F 34.9 °F 30.2 °F 75% 30.33 in 7.0 mi NNE 3.5 mph - N/A   Overcast
8:55 AM 37.4 °F 34.9 °F 30.2 °F 75% 30.34 in 7.0 mi North 3.5 mph - N/A   Overcast
9:15 AM 37.4 °F - 30.2 °F 75% 30.34 in 7.0 mi Calm Calm - N/A   Overcast
9:35 AM 39.2 °F 35.9 °F 30.2 °F 70% 30.35 in 9.0 mi NNE 4.6 mph - N/A   Overcast
9:55 AM 39.2 °F - 30.2 °F 70% 30.35 in 10.0 mi Calm Calm - N/A   Overcast
10:15 AM 41.0 °F 37.1 °F 30.2 °F 65% 30.35 in 10.0 mi NNE 5.8 mph - N/A   Overcast
10:35 AM 42.8 °F 38.6 °F 28.4 °F 57% 30.35 in 10.0 mi NE 6.9 mph - N/A   Overcast
10:55 AM 42.8 °F 38.0 °F 30.2 °F 61% 30.35 in 10.0 mi North 8.1 mph - N/A   Mostly Cloudy
11:15 AM 44.6 °F 40.7 °F 28.4 °F 53% 30.35 in 10.0 mi NNE 6.9 mph - N/A   Scattered Clouds
11:35 AM 44.6 °F 42.2 °F 26.6 °F 49% 30.34 in 10.0 mi NNE 4.6 mph - N/A   Mostly Cloudy
11:55 AM 46.4 °F 41.9 °F 24.8 °F 43% 30.34 in 10.0 mi NNE 9.2 mph - N/A   Mostly Cloudy
12:15 PM 46.4 °F 41.9 °F 24.8 °F 43% 30.32 in 10.0 mi NNE 9.2 mph - N/A   Mostly Cloudy
12:35 PM 46.4 °F 43.5 °F 24.8 °F 43% 30.32 in 10.0 mi North 5.8 mph - N/A   Mostly Cloudy
12:55 PM 46.4 °F 42.9 °F 23.0 °F 40% 30.32 in 10.0 mi North 6.9 mph - N/A   Mostly Cloudy
1:15 PM 46.4 °F 43.5 °F 24.8 °F 43% 30.32 in 10.0 mi North 5.8 mph - N/A   Mostly Cloudy
1:35 PM 46.4 °F 43.5 °F 24.8 °F 43% 30.31 in 10.0 mi NNE 5.8 mph - N/A   Mostly Cloudy
1:55 PM 46.4 °F 43.5 °F 24.8 °F 43% 30.32 in 10.0 mi NNE 5.8 mph - N/A   Scattered Clouds
2:15 PM 46.4 °F 43.5 °F 23.0 °F 40% 30.33 in 10.0 mi NNE 5.8 mph - N/A   Mostly Cloudy
2:35 PM 46.4 °F 42.9 °F 21.2 °F 37% 30.33 in 10.0 mi NNE 6.9 mph - N/A   Scattered Clouds
2:55 PM 46.4 °F - 23.0 °F 40% 30.33 in 10.0 mi North - - N/A   Partly Cloudy
3:15 PM 46.4 °F 42.4 °F 24.8 °F 43% 30.33 in 10.0 mi NE 8.1 mph - N/A   Partly Cloudy
3:35 PM 46.4 °F 42.9 °F 24.8 °F 43% 30.34 in 10.0 mi North 6.9 mph - N/A   Mostly Cloudy
3:55 PM 46.4 °F 42.4 °F 24.8 °F 43% 30.34 in 10.0 mi NE 8.1 mph - N/A   Overcast
4:15 PM 46.4 °F 41.9 °F 23.0 °F 40% 30.34 in 10.0 mi NNE 9.2 mph - N/A   Scattered Clouds
4:35 PM 48.2 °F - 21.2 °F 34% 30.34 in 10.0 mi North 9.2 mph - N/A   Partly Cloudy
4:55 PM 46.4 °F - 19.4 °F 34% 30.34 in 10.0 mi North - - N/A   Mostly Cloudy
5:15 PM 46.4 °F - 19.4 °F 34% 30.35 in 10.0 mi North - - N/A   Scattered Clouds
5:35 PM 44.6 °F - 17.6 °F 34% 30.35 in 10.0 mi North - - N/A   Clear
5:55 PM 42.8 °F 40.1 °F 17.6 °F 36% 30.35 in 10.0 mi NW 4.6 mph - N/A   Clear
6:15 PM 42.8 °F - 15.8 °F 34% 30.36 in 10.0 mi North - - N/A   Clear
6:35 PM 42.8 °F - 15.8 °F 34% 30.36 in 10.0 mi North - - N/A   Clear
6:55 PM 42.8 °F - 17.6 °F 36% 30.37 in 10.0 mi North - - N/A   Clear
7:15 PM 41.0 °F - 17.6 °F 39% 30.38 in 10.0 mi North - - N/A   Clear
7:35 PM 39.2 °F 35.9 °F 17.6 °F 42% 30.39 in 10.0 mi NNE 4.6 mph - N/A   Clear
7:55 PM 39.2 °F - 15.8 °F 39% 30.39 in 10.0 mi North - - N/A   Clear
8:15 PM 39.2 °F - 17.6 °F 42% 30.40 in 10.0 mi North - - N/A   Clear
8:35 PM 39.2 °F 34.2 °F 17.6 °F 42% 30.39 in 10.0 mi North 6.9 mph - N/A   Clear
8:55 PM 39.2 °F 35.0 °F 17.6 °F 42% 30.40 in 10.0 mi North 5.8 mph - N/A   Clear
9:15 PM 37.4 °F 33.8 °F 17.6 °F 45% 30.41 in 10.0 mi NNE 4.6 mph - N/A   Clear
9:35 PM 37.4 °F - 17.6 °F 45% 30.41 in 10.0 mi North - - N/A   Clear
9:55 PM 37.4 °F 34.9 °F 17.6 °F 45% 30.42 in 10.0 mi North 3.5 mph - N/A   Clear
10:15 PM 35.6 °F - 17.6 °F 48% 30.43 in 10.0 mi North - - N/A   Clear
10:35 PM 35.6 °F - 17.6 °F 48% 30.44 in 10.0 mi North - - N/A   Clear
10:55 PM 33.8 °F - 17.6 °F 52% 30.44 in 10.0 mi North - - N/A   Clear
11:15 PM 33.8 °F 27.0 °F 17.6 °F 52% 30.45 in 10.0 mi North 8.1 mph - N/A   Clear
11:35 PM 33.8 °F - 17.6 °F 52% 30.45 in 10.0 mi North - - N/A   Clear
11:55 PM 33.8 °F 29.6 °F 17.6 °F 52% 30.45 in 10.0 mi North 4.6 mph - N/A   Clear